Location: Casteau
(50.5142°N, 4.0161°E)
Time: 05:41:24
(UTC+00:00)

Cosmos 1626 - Pass Details

Date: 18 September 2020
Orbit: 490 x 495 km, 82.5° (Epoch: 29 October)

Event Time Altitude Azimuth Distance (km) Brightness Sun altitude
Rises 20:12:18 0° 351° (N) 2,592 6.4 -22.2°
Reaches altitude 10° 20:14:26 10° 353° (N) 1,703 5.3 -22.5°
Enters shadow 20:17:25 54° 10° (N) 607 2.5 -22.9°
